Location: Aufkirchen
(47.9603°N, 11.3653°E)
Time: 14:51:26
(UTC+01:00)

Transit 2A Rocket - Pass Details

Date: 05 December 2020
Orbit: 592 x 910 km, 66.7° (Epoch: 21 January)

Event Time Altitude Azimuth Distance (km) Brightness Sun altitude
Rises 03:40:31 0° 281° (W) 3,415 - -40.4°
Reaches altitude 10° 03:44:21 10° 305° (NW) 2,416 - -39.8°
Maximum altitude 03:47:13 14° 337° (NNW) 2,087 - -39.3°
Drops below altitude 10° 03:49:59 10° 8° (N) 2,308 - -38.9°
Exits shadow 03:51:22 - 20° (NNE) 2,587 8.0 -38.6°
Sets 03:53:31 0° 34° (NE) 3,157 8.7 -38.3°
